sat.trackr.live / text

‹ back to catalog

STARLINK-34437

NORAD 64346 · 2025-126C

PAYLOAD ACTIVE UNKNOWN

§ Identity

Operator
Country
US
Launch date
2025-06-13
Launch site
AFWTR
Launch vehicle
Mass (kg)
RCS (m²)

Purposes: comms

External: N2YO · Heavens-Above · Gunter

§ Orbital elements

Epoch: 2026-09-20T10:18:19.286496Z

Period
94.14 min
Inclination
70.0002°
Eccentricity
0.0004048
Mean motion
15.29592023 rev/d
Perigee alt
474.3 km
Apogee alt
479.8 km
Semi-major
6,855.2 km
B*
3.3123e-4
RAAN
261.3943°
Arg perigee
283.9768°
Mean anomaly
76.0957°
Rev number
6,990

§ Raw data

STARLINK-344371 64346U 25126C   26263.42938989  .00009410  00000+0  33123-3 0  99982 64346  70.0002 261.3943 0004048 283.9768  76.0957 15.29592023 69907

JSON: /api/v1/satellites/64346 · /tle

For live sub-satellite position, see the globe view (requires WebGL).

§ Visibility from observer

Set your observer location to see the next 7 days of passes ≥ 10°. The values pass through the URL so the page stays shareable.

No JS? Fill the form by hand. The geolocation button needs JavaScript.